Tracking 19246 objects as of 20-Aug-2018
HD Live streaming from Space Station
objects crossing your sky now

FENGYUN 1C DEB

Track FENGYUN 1C DEB now!
10-day predictions


NORAD ID: 30287
Int'l Code: 1999-025YY
Perigee: 715.6 km
Apogee: 1,365.8 km
Inclination: 98.7 °
Period: 105.8 minutes
Semi major axis: 7411 km
RCS: 0.0604 m2 (small)
Launch date: May 10, 1999
Source: People's Republic of China (PRC)
Launch site: Taiyaun Space Center, China (TSC)

Note: This is SATELLITE DEBRIS
aabbcc
Your satellite tracking list
Your tracking list is empty




NASA's NSSDC Master Catalog

Two Line Element Set (TLE):
1 30287U 99025YY  18231.48357257  .00000158  00000-0  13728-3 0  9999
2 30287  98.6955 153.2198 0438675 202.0091 282.4438 13.60584774574686
Source of the keplerian elements: AFSPC